SWA2948 KLGB-KDEN

Flight info

Callsign SWA2948
Flight time 2h 5m
Altitude 39000
Route ZOOMM3 BEALE J146 DICEE BUMMP SSKII4
Aircraft B737/M-SADE2E3GIJ4RWZ/LB1D1

Departure

Time 2026-05-06 14:40
Airport Long Beach International Airport (KLGB)

Arrival

Time 2026-05-06 16:46
Airport Denver International Airport (KDEN)
Time Latitude Longitude Altitude Speed Heading
2026-05-06 14:15 33.81860 -118.14600 35 ft 0 kts 90°
2026-05-06 14:30 33.81860 -118.14624 44 ft 4 kts 94°
2026-05-06 14:30 33.81863 -118.14656 44 ft 4 kts 103°
2026-05-06 14:30 33.81872 -118.14686 44 ft 4 kts 127°
2026-05-06 14:30 33.81888 -118.14700 44 ft 1 kts 180°
2026-05-06 14:31 33.81893 -118.14700 44 ft 0 kts 180°
2026-05-06 14:35 33.81887 -118.14700 44 ft 3 kts 180°
2026-05-06 14:35 33.81838 -118.14700 44 ft 11 kts 179°
2026-05-06 14:35 33.81739 -118.14699 44 ft 17 kts 180°
2026-05-06 14:35 33.81621 -118.14701 44 ft 17 kts 180°
2026-05-06 14:36 33.81523 -118.14638 44 ft 16 kts 135°
2026-05-06 14:36 33.81446 -118.14546 44 ft 16 kts 135°
2026-05-06 14:36 33.81372 -118.14454 43 ft 15 kts 133°
2026-05-06 14:36 33.81299 -118.14369 43 ft 14 kts 135°
2026-05-06 14:37 33.81230 -118.14286 44 ft 14 kts 134°
2026-05-06 14:37 33.81165 -118.14206 44 ft 13 kts 134°
2026-05-06 14:37 33.81102 -118.14129 44 ft 13 kts 135°
2026-05-06 14:37 33.81041 -118.14054 44 ft 12 kts 134°
2026-05-06 14:38 33.80981 -118.13982 45 ft 12 kts 135°
2026-05-06 14:38 33.80923 -118.13911 45 ft 12 kts 134°
2026-05-06 14:38 33.80866 -118.13841 44 ft 11 kts 134°
2026-05-06 14:38 33.80809 -118.13776 43 ft 11 kts 136°
2026-05-06 14:39 33.80758 -118.13755 44 ft 7 kts 217°
2026-05-06 14:39 33.80719 -118.13796 41 ft 7 kts 222°
2026-05-06 14:39 33.80706 -118.13838 43 ft 0 kts 291°
2026-05-06 14:39 33.80707 -118.13841 43 ft 2 kts 300°
2026-05-06 14:40 33.80843 -118.14006 44 ft 67 kts 315°
2026-05-06 14:40 33.81364 -118.14635 42 ft 141 kts 315°
2026-05-06 14:40 33.82163 -118.15610 374 ft 173 kts 313°
2026-05-06 14:40 33.82922 -118.16640 1457 ft 161 kts 311°
2026-05-06 14:41 33.83588 -118.17827 1866 ft 188 kts 283°
2026-05-06 14:41 33.83361 -118.19441 2175 ft 215 kts 236°
2026-05-06 14:41 33.82109 -118.20563 2438 ft 244 kts 196°
2026-05-06 14:41 33.80387 -118.21019 3022 ft 260 kts 192°
2026-05-06 14:42 33.78599 -118.21377 3769 ft 268 kts 189°
2026-05-06 14:42 33.76725 -118.21672 4623 ft 274 kts 188°
2026-05-06 14:42 33.74815 -118.21970 5427 ft 280 kts 188°
2026-05-06 14:42 33.72865 -118.22244 6307 ft 284 kts 185°
2026-05-06 14:43 33.70885 -118.22484 7180 ft 288 kts 185°
2026-05-06 14:43 33.68875 -118.22751 8075 ft 293 kts 185°
2026-05-06 14:43 33.66841 -118.23052 9005 ft 298 kts 186°
2026-05-06 14:43 33.64769 -118.23375 9958 ft 303 kts 185°
2026-05-06 14:44 33.62629 -118.23720 10626 ft 321 kts 186°
2026-05-06 14:44 33.60313 -118.24144 10887 ft 351 kts 188°
2026-05-06 14:44 33.57888 -118.24650 11517 ft 365 kts 189°
2026-05-06 14:45 33.52790 -118.25741 13289 ft 378 kts 188°
2026-05-06 14:45 33.50188 -118.26317 14157 ft 384 kts 189°
2026-05-06 14:45 33.47542 -118.26914 14984 ft 389 kts 189°
2026-05-06 14:45 33.44873 -118.27511 15856 ft 393 kts 189°
2026-05-06 14:46 33.42162 -118.28110 16713 ft 397 kts 189°
2026-05-06 14:46 33.39432 -118.28709 17533 ft 402 kts 189°
2026-05-06 14:46 33.37596 -118.29102 18080 ft 406 kts 188°
2026-05-06 14:46 33.33874 -118.29677 19002 ft 411 kts 174°
2026-05-06 14:47 33.31115 -118.28884 19641 ft 408 kts 151°
2026-05-06 14:47 33.28757 -118.27051 20352 ft 403 kts 132°
2026-05-06 14:47 33.27016 -118.24494 21039 ft 396 kts 114°
2026-05-06 14:47 33.26039 -118.21457 21730 ft 389 kts 96°
2026-05-06 14:48 33.25848 -118.19345 22186 ft 385 kts 85°
2026-05-06 14:48 33.26229 -118.16220 22874 ft 380 kts 69°
2026-05-06 14:48 33.27283 -118.13347 23568 ft 378 kts 56°
2026-05-06 14:48 33.28930 -118.10917 24152 ft 377 kts 43°
2026-05-06 14:49 33.30844 -118.08762 24745 ft 379 kts 41°
2026-05-06 14:49 33.32817 -118.06657 25331 ft 381 kts 40°
2026-05-06 14:49 33.34815 -118.04555 25889 ft 384 kts 40°
2026-05-06 14:49 33.36822 -118.02439 26438 ft 387 kts 40°
2026-05-06 14:50 33.38841 -118.00295 26976 ft 390 kts 40°
2026-05-06 14:50 33.40869 -117.98126 27487 ft 392 kts 41°
2026-05-06 14:50 33.42906 -117.95933 27986 ft 395 kts 41°
2026-05-06 14:50 33.44928 -117.93747 28485 ft 398 kts 41°
2026-05-06 14:51 33.46986 -117.91515 28976 ft 401 kts 41°
2026-05-06 14:51 33.49056 -117.89267 29452 ft 403 kts 41°
2026-05-06 14:51 33.51141 -117.86998 29918 ft 406 kts 41°
2026-05-06 14:51 33.53236 -117.84718 30342 ft 408 kts 41°
2026-05-06 14:52 33.55343 -117.82422 30723 ft 410 kts 41°
2026-05-06 14:52 33.57453 -117.80122 31176 ft 410 kts 41°
2026-05-06 14:52 33.59554 -117.77829 31755 ft 406 kts 41°
2026-05-06 14:52 33.61628 -117.75563 32368 ft 401 kts 41°
2026-05-06 14:53 33.63684 -117.73317 32911 ft 399 kts 41°
2026-05-06 14:53 33.65708 -117.71105 33370 ft 398 kts 41°
2026-05-06 14:53 33.67748 -117.68873 33829 ft 396 kts 41°
2026-05-06 14:53 33.69776 -117.66653 34286 ft 394 kts 41°
2026-05-06 14:54 33.71801 -117.64435 34563 ft 395 kts 41°
2026-05-06 14:54 33.73840 -117.62200 34777 ft 398 kts 41°
2026-05-06 14:54 33.75884 -117.59959 35112 ft 397 kts 41°
2026-05-06 14:54 33.77925 -117.57719 35411 ft 398 kts 41°
2026-05-06 14:55 33.79976 -117.55466 35629 ft 401 kts 41°
2026-05-06 14:55 33.82042 -117.53197 35891 ft 402 kts 41°
2026-05-06 14:55 33.84104 -117.50928 36194 ft 402 kts 41°
2026-05-06 14:55 33.86143 -117.48683 36428 ft 404 kts 41°
2026-05-06 14:56 33.88220 -117.46396 36676 ft 405 kts 41°
2026-05-06 14:56 33.90304 -117.44100 36879 ft 407 kts 41°
2026-05-06 14:56 33.92394 -117.41796 37140 ft 408 kts 41°
2026-05-06 14:56 33.94485 -117.39488 37404 ft 408 kts 41°
2026-05-06 14:57 33.96583 -117.37171 37637 ft 409 kts 41°
2026-05-06 14:57 33.98685 -117.34848 37866 ft 411 kts 41°
2026-05-06 14:57 34.00789 -117.32520 38095 ft 411 kts 41°
2026-05-06 14:57 34.02898 -117.30187 38339 ft 412 kts 41°
2026-05-06 14:58 34.05010 -117.27848 38651 ft 411 kts 41°
2026-05-06 14:58 34.07106 -117.25524 38949 ft 409 kts 41°
2026-05-06 14:58 34.09206 -117.23195 39074 ft 412 kts 41°
2026-05-06 14:59 34.13398 -117.18541 39057 ft 411 kts 41°
2026-05-06 14:59 34.17620 -117.13847 39076 ft 415 kts 40°
2026-05-06 15:00 34.21889 -117.09094 39058 ft 420 kts 40°
2026-05-06 15:00 34.26194 -117.04294 39066 ft 423 kts 41°
2026-05-06 15:01 34.30492 -116.99495 39053 ft 424 kts 41°
2026-05-06 15:01 34.34789 -116.94688 39041 ft 416 kts 41°
2026-05-06 15:02 34.39000 -116.89973 39040 ft 411 kts 41°
2026-05-06 15:02 34.43183 -116.85282 39042 ft 409 kts 41°
2026-05-06 15:03 34.47359 -116.80592 39048 ft 410 kts 41°
2026-05-06 15:03 34.51557 -116.75871 39066 ft 419 kts 41°
2026-05-06 15:04 34.55839 -116.71048 39059 ft 420 kts 41°
2026-05-06 15:04 34.60119 -116.66220 39069 ft 421 kts 41°
2026-05-06 15:05 34.64404 -116.61379 39071 ft 420 kts 41°
2026-05-06 15:05 34.68678 -116.56541 39072 ft 419 kts 42°
2026-05-06 15:06 34.72939 -116.51713 39073 ft 419 kts 42°
2026-05-06 15:06 34.77192 -116.46888 39063 ft 418 kts 42°
2026-05-06 15:07 34.81412 -116.42094 39052 ft 417 kts 42°
2026-05-06 15:07 34.85647 -116.37274 39038 ft 416 kts 42°
2026-05-06 15:08 34.89868 -116.32463 39042 ft 416 kts 42°
2026-05-06 15:08 34.94087 -116.27647 39034 ft 416 kts 42°
2026-05-06 15:09 34.98312 -116.22817 39041 ft 417 kts 42°
2026-05-06 15:09 35.02512 -116.18009 39039 ft 417 kts 42°
2026-05-06 15:10 35.06746 -116.13155 39031 ft 417 kts 42°
2026-05-06 15:10 35.10974 -116.08300 39037 ft 417 kts 42°
2026-05-06 15:11 35.15204 -116.03436 39037 ft 417 kts 42°
2026-05-06 15:11 35.19428 -115.98571 39048 ft 417 kts 43°
2026-05-06 15:12 35.23654 -115.93697 39058 ft 418 kts 42°
2026-05-06 15:12 35.27854 -115.88846 39060 ft 418 kts 42°
2026-05-06 15:13 35.32080 -115.83956 39061 ft 418 kts 43°
2026-05-06 15:13 35.36301 -115.79066 39059 ft 417 kts 43°
2026-05-06 15:14 35.40506 -115.74186 39063 ft 415 kts 43°
2026-05-06 15:14 35.44692 -115.69321 39066 ft 414 kts 43°
2026-05-06 15:15 35.48867 -115.64463 39062 ft 413 kts 43°
2026-05-06 15:15 35.52999 -115.59646 39080 ft 412 kts 43°
2026-05-06 15:16 35.57157 -115.54793 39068 ft 413 kts 43°
2026-05-06 15:16 35.61323 -115.49922 39068 ft 413 kts 43°
2026-05-06 15:17 35.65489 -115.45043 39081 ft 414 kts 43°
2026-05-06 15:17 35.69653 -115.40160 39085 ft 414 kts 43°
2026-05-06 15:18 35.73834 -115.35250 39071 ft 415 kts 43°
2026-05-06 15:18 35.78009 -115.30339 39073 ft 416 kts 43°
2026-05-06 15:19 35.82157 -115.25452 39067 ft 416 kts 43°
2026-05-06 15:19 35.86343 -115.20513 39092 ft 417 kts 43°
2026-05-06 15:20 35.90533 -115.15562 39096 ft 417 kts 43°
2026-05-06 15:20 35.94714 -115.10613 39091 ft 416 kts 43°
2026-05-06 15:21 35.98882 -115.05671 39085 ft 414 kts 43°
2026-05-06 15:21 36.03028 -115.00749 39095 ft 413 kts 43°
2026-05-06 15:22 36.07135 -114.95866 39035 ft 412 kts 43°
2026-05-06 15:22 36.11252 -114.90961 39006 ft 410 kts 43°
2026-05-06 15:23 36.15356 -114.86066 38998 ft 410 kts 43°
2026-05-06 15:23 36.18787 -114.80440 38991 ft 412 kts 59°
2026-05-06 15:24 36.21017 -114.73886 38982 ft 415 kts 66°
2026-05-06 15:24 36.23006 -114.67227 38964 ft 415 kts 66°
2026-05-06 15:25 36.25020 -114.60507 38947 ft 416 kts 66°
2026-05-06 15:25 36.27053 -114.53792 38947 ft 417 kts 66°
2026-05-06 15:26 36.29099 -114.47048 38955 ft 418 kts 66°
2026-05-06 15:26 36.31146 -114.40293 38948 ft 419 kts 66°
2026-05-06 15:27 36.33193 -114.33519 38945 ft 420 kts 66°
2026-05-06 15:27 36.35223 -114.26785 38955 ft 419 kts 66°
2026-05-06 15:28 36.37263 -114.20004 38944 ft 420 kts 66°
2026-05-06 15:28 36.39301 -114.13212 38959 ft 420 kts 66°
2026-05-06 15:29 36.41334 -114.06419 38967 ft 420 kts 66°
2026-05-06 15:29 36.43363 -113.99622 38968 ft 420 kts 66°
2026-05-06 15:30 36.45389 -113.92822 38966 ft 420 kts 66°
2026-05-06 15:30 36.47412 -113.86015 38978 ft 420 kts 66°
2026-05-06 15:31 36.49419 -113.79244 38977 ft 421 kts 66°
2026-05-06 15:31 36.51438 -113.72416 38988 ft 422 kts 66°
2026-05-06 15:32 36.54475 -113.62115 38994 ft 424 kts 67°
2026-05-06 15:32 36.56504 -113.55212 38987 ft 426 kts 67°
2026-05-06 15:33 36.58535 -113.48283 39000 ft 427 kts 67°
2026-05-06 15:33 36.60567 -113.41335 39000 ft 428 kts 67°
2026-05-06 15:34 36.62585 -113.34418 39012 ft 429 kts 67°
2026-05-06 15:34 36.64623 -113.27407 39009 ft 431 kts 67°
2026-05-06 15:35 36.66658 -113.20382 39025 ft 431 kts 67°
2026-05-06 15:35 36.68690 -113.13349 39051 ft 432 kts 67°
2026-05-06 15:36 36.70719 -113.06311 39079 ft 433 kts 68°
2026-05-06 15:36 36.72752 -112.99242 39083 ft 433 kts 68°
2026-05-06 15:37 36.74764 -112.92225 39083 ft 433 kts 68°
2026-05-06 15:37 36.76786 -112.85158 39076 ft 433 kts 68°
2026-05-06 15:38 36.78802 -112.78089 39078 ft 432 kts 68°
2026-05-06 15:38 36.80817 -112.71009 39043 ft 433 kts 68°
2026-05-06 15:39 36.82830 -112.63919 39014 ft 434 kts 68°
2026-05-06 15:39 36.84840 -112.56817 38986 ft 434 kts 68°
2026-05-06 15:40 36.86836 -112.49749 38985 ft 435 kts 68°
2026-05-06 15:40 36.88845 -112.42617 38984 ft 436 kts 66°
2026-05-06 15:41 36.90848 -112.35459 38983 ft 437 kts 68°
2026-05-06 15:41 36.92858 -112.28282 38963 ft 438 kts 68°
2026-05-06 15:42 36.94873 -112.21087 38961 ft 439 kts 66°
2026-05-06 15:42 36.96886 -112.13880 38943 ft 440 kts 67°
2026-05-06 15:43 36.98884 -112.06691 38949 ft 442 kts 67°
2026-05-06 15:43 37.00903 -111.99408 38932 ft 443 kts 68°
2026-05-06 15:44 37.02926 -111.92100 38927 ft 445 kts 68°
2026-05-06 15:44 37.04954 -111.84759 38920 ft 447 kts 66°
2026-05-06 15:45 37.06980 -111.77402 38902 ft 448 kts 69°
2026-05-06 15:45 37.09001 -111.70028 38899 ft 448 kts 69°
2026-05-06 15:46 37.11010 -111.62681 38893 ft 448 kts 69°
2026-05-06 15:46 37.13022 -111.55307 38971 ft 447 kts 69°
2026-05-06 15:47 37.15028 -111.47931 38968 ft 447 kts 69°
2026-05-06 15:47 37.17027 -111.40567 38956 ft 446 kts 69°
2026-05-06 15:48 37.19002 -111.33266 38946 ft 445 kts 69°
2026-05-06 15:48 37.20984 -111.25922 38928 ft 444 kts 69°
2026-05-06 15:49 37.23232 -111.18746 38914 ft 441 kts 61°
2026-05-06 15:49 37.25999 -111.11880 38916 ft 441 kts 60°
2026-05-06 15:50 37.28223 -111.06476 38916 ft 442 kts 60°
2026-05-06 15:50 37.28882 -111.04861 38916 ft 443 kts 60°
2026-05-06 15:51 37.31671 -110.97938 38900 ft 445 kts 60°
2026-05-06 15:51 37.34443 -110.90963 38902 ft 447 kts 61°
2026-05-06 15:52 37.37212 -110.83955 38900 ft 449 kts 61°
2026-05-06 15:52 37.39990 -110.76906 38899 ft 451 kts 60°
2026-05-06 15:53 37.42759 -110.69870 38892 ft 453 kts 60°
2026-05-06 15:53 37.45553 -110.62755 38892 ft 454 kts 60°
2026-05-06 15:54 37.48350 -110.55614 38899 ft 455 kts 60°
2026-05-06 15:54 37.51149 -110.48453 38896 ft 456 kts 61°
2026-05-06 15:55 37.53932 -110.41317 38904 ft 458 kts 60°
2026-05-06 15:55 37.56735 -110.34114 38903 ft 457 kts 61°
2026-05-06 15:56 37.59525 -110.26923 38912 ft 456 kts 61°
2026-05-06 15:56 37.62308 -110.19736 38921 ft 455 kts 61°
2026-05-06 15:57 37.65061 -110.12613 38949 ft 454 kts 61°
2026-05-06 15:57 37.67829 -110.05435 38953 ft 455 kts 61°
2026-05-06 15:58 37.70591 -109.98255 38951 ft 455 kts 61°
2026-05-06 15:58 37.71445 -109.96031 38943 ft 456 kts 61°
2026-05-06 15:59 37.73774 -109.89956 38942 ft 455 kts 61°
2026-05-06 15:59 37.76512 -109.82800 38957 ft 455 kts 62°
2026-05-06 16:00 37.79264 -109.75594 38964 ft 457 kts 61°
2026-05-06 16:00 37.80806 -109.71562 38965 ft 459 kts 59°
2026-05-06 16:01 37.81281 -109.70318 38966 ft 459 kts 61°
2026-05-06 16:01 37.83476 -109.64542 39020 ft 459 kts 62°
2026-05-06 16:02 37.86211 -109.57321 39008 ft 458 kts 61°
2026-05-06 16:02 37.88964 -109.50042 38991 ft 458 kts 61°
2026-05-06 16:03 37.91708 -109.42784 38995 ft 457 kts 62°
2026-05-06 16:03 37.94446 -109.35520 38977 ft 457 kts 62°
2026-05-06 16:04 37.97161 -109.28302 38986 ft 456 kts 62°
2026-05-06 16:04 37.99879 -109.21055 38977 ft 455 kts 63°
2026-05-06 16:05 38.02597 -109.13787 38975 ft 456 kts 62°
2026-05-06 16:05 38.05313 -109.06513 38975 ft 457 kts 62°
2026-05-06 16:06 38.08035 -108.99203 38954 ft 458 kts 62°
2026-05-06 16:06 38.10741 -108.91952 38945 ft 457 kts 61°
2026-05-06 16:07 38.13570 -108.84740 38955 ft 456 kts 60°
2026-05-06 16:07 38.15332 -108.80308 38949 ft 456 kts 60°
2026-05-06 16:08 38.18182 -108.73102 39264 ft 457 kts 60°
2026-05-06 16:08 38.21000 -108.65922 39349 ft 457 kts 61°
2026-05-06 16:09 38.23830 -108.58675 39344 ft 458 kts 61°
2026-05-06 16:09 38.26662 -108.51407 39344 ft 459 kts 61°
2026-05-06 16:10 38.29496 -108.44116 39309 ft 460 kts 61°
2026-05-06 16:10 38.32334 -108.36799 39225 ft 462 kts 61°
2026-05-06 16:11 38.35163 -108.29488 39162 ft 464 kts 61°
2026-05-06 16:11 38.38020 -108.22086 39007 ft 466 kts 61°
2026-05-06 16:12 38.40877 -108.14664 39035 ft 467 kts 61°
2026-05-06 16:12 38.43729 -108.07238 39069 ft 466 kts 61°
2026-05-06 16:13 38.46557 -107.99857 39100 ft 466 kts 61°
2026-05-06 16:13 38.49372 -107.92426 39099 ft 465 kts 62°
2026-05-06 16:14 38.52173 -107.84995 39104 ft 464 kts 62°
2026-05-06 16:14 38.54969 -107.77566 38958 ft 464 kts 62°
2026-05-06 16:15 38.57761 -107.70133 38942 ft 464 kts 62°
2026-05-06 16:15 38.60550 -107.62691 38957 ft 465 kts 62°
2026-05-06 16:16 38.63326 -107.55265 38942 ft 466 kts 62°
2026-05-06 16:16 38.66126 -107.47768 38938 ft 468 kts 62°
2026-05-06 16:17 38.68961 -107.40277 38927 ft 468 kts 62°
2026-05-06 16:17 38.71811 -107.32767 38923 ft 469 kts 62°
2026-05-06 16:18 38.74636 -107.25290 38939 ft 470 kts 62°
2026-05-06 16:18 38.77477 -107.17742 38914 ft 471 kts 62°
2026-05-06 16:19 38.80333 -107.10135 38914 ft 476 kts 62°
2026-05-06 16:19 38.83207 -107.02460 38913 ft 479 kts 62°
2026-05-06 16:20 38.86094 -106.94728 38905 ft 482 kts 62°
2026-05-06 16:20 38.88983 -106.86972 38436 ft 491 kts 62°
2026-05-06 16:21 38.90452 -106.83020 37828 ft 490 kts 62°
2026-05-06 16:21 38.91910 -106.79088 37203 ft 487 kts 61°
2026-05-06 16:21 38.93357 -106.75181 36589 ft 485 kts 61°
2026-05-06 16:21 38.94798 -106.71288 35952 ft 483 kts 61°
2026-05-06 16:22 38.96236 -106.67401 35372 ft 481 kts 60°
2026-05-06 16:22 38.97663 -106.63536 34882 ft 476 kts 60°
2026-05-06 16:22 38.99076 -106.59705 34403 ft 472 kts 60°
2026-05-06 16:22 39.00452 -106.55968 33967 ft 467 kts 60°
2026-05-06 16:23 39.01823 -106.52225 33471 ft 461 kts 60°
2026-05-06 16:23 39.03183 -106.48506 32990 ft 457 kts 61°
2026-05-06 16:23 39.04528 -106.44828 32510 ft 453 kts 61°
2026-05-06 16:23 39.05862 -106.41171 32028 ft 449 kts 62°
2026-05-06 16:24 39.07184 -106.37548 31561 ft 446 kts 62°
2026-05-06 16:24 39.08495 -106.33949 31123 ft 443 kts 62°
2026-05-06 16:24 39.09801 -106.30360 30630 ft 443 kts 62°
2026-05-06 16:24 39.11103 -106.26777 30142 ft 442 kts 62°
2026-05-06 16:25 39.12405 -106.23190 29566 ft 440 kts 62°
2026-05-06 16:25 39.13678 -106.19681 29036 ft 437 kts 62°
2026-05-06 16:25 39.14959 -106.16141 28506 ft 434 kts 62°
2026-05-06 16:25 39.16227 -106.12626 27979 ft 431 kts 63°
2026-05-06 16:26 39.17485 -106.09131 27488 ft 428 kts 63°
2026-05-06 16:26 39.18729 -106.05667 27005 ft 425 kts 63°
2026-05-06 16:26 39.19963 -106.02230 26521 ft 421 kts 63°
2026-05-06 16:26 39.21188 -105.98813 26064 ft 418 kts 63°
2026-05-06 16:27 39.22408 -105.95409 25586 ft 416 kts 63°
2026-05-06 16:27 39.23615 -105.92033 25155 ft 413 kts 64°
2026-05-06 16:27 39.24818 -105.88684 24717 ft 410 kts 64°
2026-05-06 16:27 39.26001 -105.85404 24313 ft 407 kts 64°
2026-05-06 16:28 39.27189 -105.82111 23897 ft 403 kts 64°
2026-05-06 16:28 39.28366 -105.78841 23441 ft 400 kts 64°
2026-05-06 16:28 39.29533 -105.75596 22999 ft 397 kts 64°
2026-05-06 16:28 39.30684 -105.72390 22572 ft 392 kts 64°
2026-05-06 16:29 39.31830 -105.69194 22029 ft 391 kts 64°
2026-05-06 16:29 39.32967 -105.66028 21605 ft 387 kts 63°
2026-05-06 16:29 39.34107 -105.62899 21224 ft 383 kts 63°
2026-05-06 16:29 39.35225 -105.59844 20825 ft 379 kts 63°
2026-05-06 16:30 39.36348 -105.56778 20421 ft 376 kts 63°
2026-05-06 16:30 39.36724 -105.55749 20286 ft 374 kts 63°
2026-05-06 16:30 39.38548 -105.50746 19658 ft 367 kts 63°
2026-05-06 16:30 39.39627 -105.47778 19303 ft 363 kts 63°
2026-05-06 16:31 39.40694 -105.44840 18936 ft 359 kts 62°
2026-05-06 16:31 39.41610 -105.41844 18531 ft 359 kts 76°
2026-05-06 16:31 39.41808 -105.38643 18157 ft 355 kts 88°
2026-05-06 16:31 39.41820 -105.35466 17775 ft 351 kts 89°
2026-05-06 16:32 39.41806 -105.32368 17398 ft 347 kts 89°
2026-05-06 16:32 39.41794 -105.29269 17040 ft 342 kts 89°
2026-05-06 16:32 39.41790 -105.26221 16683 ft 337 kts 89°
2026-05-06 16:32 39.41794 -105.23202 16332 ft 332 kts 89°
2026-05-06 16:33 39.41803 -105.20230 16008 ft 328 kts 89°
2026-05-06 16:33 39.41814 -105.17302 15673 ft 324 kts 89°
2026-05-06 16:33 39.41825 -105.14412 15461 ft 315 kts 89°
2026-05-06 16:34 39.41844 -105.09730 14864 ft 312 kts 89°
2026-05-06 16:34 39.41859 -105.06028 14391 ft 309 kts 89°
2026-05-06 16:34 39.41869 -105.03265 14070 ft 305 kts 89°
2026-05-06 16:34 39.41878 -105.00539 13721 ft 301 kts 89°
2026-05-06 16:35 39.41886 -104.97857 13353 ft 297 kts 89°
2026-05-06 16:35 39.41893 -104.95207 13032 ft 292 kts 89°
2026-05-06 16:35 39.41992 -104.92642 12733 ft 279 kts 83°
2026-05-06 16:35 39.42221 -104.90178 12483 ft 274 kts 83°
2026-05-06 16:36 39.42378 -104.88563 12302 ft 271 kts 83°
2026-05-06 16:36 39.42679 -104.85382 11956 ft 267 kts 83°
2026-05-06 16:36 39.42898 -104.83013 11700 ft 263 kts 83°
2026-05-06 16:36 39.43108 -104.80678 11447 ft 260 kts 83°
2026-05-06 16:37 39.43312 -104.78376 11198 ft 257 kts 83°
2026-05-06 16:37 39.43447 -104.76867 11069 ft 253 kts 82°
2026-05-06 16:37 39.43888 -104.74718 11000 ft 242 kts 67°
2026-05-06 16:37 39.44532 -104.72761 10984 ft 232 kts 67°
2026-05-06 16:38 39.45155 -104.70849 10993 ft 230 kts 65°
2026-05-06 16:38 39.46111 -104.69239 10990 ft 227 kts 34°
2026-05-06 16:38 39.47534 -104.68384 10999 ft 229 kts 17°
2026-05-06 16:38 39.49588 -104.67682 11003 ft 232 kts 15°
2026-05-06 16:39 39.50644 -104.67336 11006 ft 233 kts 15°
2026-05-06 16:39 39.52215 -104.66812 11002 ft 233 kts 15°
2026-05-06 16:39 39.53745 -104.66456 10956 ft 221 kts
2026-05-06 16:39 39.55283 -104.66375 10627 ft 220 kts
2026-05-06 16:40 39.56798 -104.66358 10344 ft 216 kts
2026-05-06 16:40 39.58276 -104.66347 10066 ft 210 kts
2026-05-06 16:40 39.59722 -104.66332 9768 ft 205 kts
2026-05-06 16:40 39.61129 -104.66316 9476 ft 199 kts
2026-05-06 16:41 39.62495 -104.66301 9221 ft 194 kts
2026-05-06 16:41 39.63819 -104.66285 8983 ft 186 kts
2026-05-06 16:41 39.65094 -104.66269 8733 ft 181 kts
2026-05-06 16:41 39.66349 -104.66253 8514 ft 180 kts
2026-05-06 16:42 39.67570 -104.66238 8282 ft 177 kts
2026-05-06 16:42 39.68783 -104.66224 8059 ft 172 kts
2026-05-06 16:42 39.69949 -104.66210 7849 ft 163 kts
2026-05-06 16:42 39.71071 -104.66197 7655 ft 159 kts
2026-05-06 16:43 39.72164 -104.66184 7473 ft 155 kts
2026-05-06 16:43 39.73238 -104.66170 7294 ft 159 kts
2026-05-06 16:43 39.74336 -104.66157 7087 ft 158 kts
2026-05-06 16:43 39.75394 -104.66145 6978 ft 147 kts
2026-05-06 16:44 39.76392 -104.66133 6816 ft 140 kts
2026-05-06 16:44 39.77335 -104.66121 6690 ft 134 kts
2026-05-06 16:44 39.78253 -104.66111 6493 ft 130 kts
2026-05-06 16:44 39.79159 -104.66100 6264 ft 130 kts
2026-05-06 16:45 39.80392 -104.66084 5993 ft 132 kts
2026-05-06 16:45 39.80998 -104.66077 5832 ft 130 kts
2026-05-06 16:45 39.81891 -104.66066 5676 ft 128 kts
2026-05-06 16:45 39.82790 -104.66058 5502 ft 130 kts
2026-05-06 16:46 39.83648 -104.66043 5424 ft 112 kts
2026-05-06 16:46 39.84293 -104.66037 5405 ft 73 kts
2026-05-06 16:46 39.84612 -104.66035 5407 ft 36 kts 353°
2026-05-06 16:46 39.84821 -104.66099 5405 ft 27 kts 336°
2026-05-06 16:47 39.84983 -104.66213 5397 ft 25 kts 336°
2026-05-06 16:47 39.85151 -104.66235 5396 ft 24 kts 359°
2026-05-06 16:47 39.85277 -104.66248 5391 ft 15 kts 356°
2026-05-06 16:47 39.85377 -104.66239 5392 ft 14 kts
2026-05-06 16:48 39.85473 -104.66237 5391 ft 14 kts 357°
2026-05-06 16:48 39.85565 -104.66240 5389 ft 13 kts
2026-05-06 16:48 39.85648 -104.66239 5386 ft 10 kts
2026-05-06 16:48 39.85715 -104.66236 5389 ft 10 kts
2026-05-06 16:49 39.85786 -104.66234 5387 ft 11 kts
2026-05-06 16:49 39.85860 -104.66234 5387 ft 10 kts 360°
2026-05-06 16:49 39.85931 -104.66234 5387 ft 10 kts
2026-05-06 16:49 39.85998 -104.66240 5386 ft 8 kts 333°
2026-05-06 16:50 39.86017 -104.66310 5384 ft 9 kts 264°
2026-05-06 16:50 39.86017 -104.66402 5382 ft 11 kts 271°
2026-05-06 16:50 39.86026 -104.66501 5376 ft 9 kts 319°
2026-05-06 16:50 39.86091 -104.66510 5377 ft 10 kts 340°
2026-05-06 16:51 39.86155 -104.66530 5375 ft 9 kts 351°
2026-05-06 16:51 39.86184 -104.66598 5375 ft 10 kts 272°
2026-05-06 16:51 39.86184 -104.66685 5376 ft 10 kts 270°
2026-05-06 16:51 39.86185 -104.66770 5376 ft 9 kts 270°
2026-05-06 16:52 39.86185 -104.66853 5376 ft 9 kts 270°
2026-05-06 16:52 39.86185 -104.66934 5376 ft 9 kts 270°
2026-05-06 16:52 39.86185 -104.67017 5376 ft 11 kts 270°
2026-05-06 16:52 39.86185 -104.67128 5376 ft 13 kts 270°
2026-05-06 16:53 39.86190 -104.67202 5376 ft 2 kts 310°
2026-05-06 16:53 39.86206 -104.67204 5373 ft 2 kts 358°
2026-05-06 16:53 39.86222 -104.67204 5376 ft 2 kts 360°
2026-05-06 16:53 39.86237 -104.67205 5372 ft 2 kts 358°
2026-05-06 16:54 39.86251 -104.67205 5374 ft 2 kts
2026-05-06 16:54 39.86255 -104.67205 5374 ft 0 kts